Today

Time Wind Dr Wind Spd
mph
Wind Gust
mph
Hum In
%
Humid
%
TempI
F
Temp
F
Raw Bar
in
Tot Rain
in
UV Solar
W/sqm
DailyRain
in
HourRain
in
24HrRain
in
RainRate
in
05/09/26 12:01:23 AM 38 0.0 0.0 55 76 72.9 62.6 29.949 7.26 0.0 0 0.00 0.00 0.00 0.00
05/09/26 12:02:36 AM 37 0.0 0.0 55 76 72.9 62.6 29.949 7.26 0.0 0 0.00 0.00 0.00 0.00
05/09/26 12:03:24 AM 37 0.0 0.0 55 76 72.9 62.6 29.947 7.26 0.0 0 0.00 0.00 0.00 0.00
05/09/26 12:04:33 AM 34 0.0 0.0 55 76 72.9 62.5 29.950 7.26 0.0 0 0.00 0.00 0.00 0.00
05/09/26 12:05:25 AM 38 0.0 0.0 55 76 72.9 62.5 29.946 7.26 0.0 0 0.00 0.00 0.00 0.00
05/09/26 12:06:19 AM 36 0.0 0.0 55 76 72.9 62.4 29.951 7.26 0.0 0 0.00 0.00 0.00 0.00
05/09/26 12:07:32 AM 38 0.0 0.0 55 76 72.9 62.3 29.949 7.26 0.0 0 0.00 0.00 0.00 0.00
05/09/26 12:08:20 AM 32 0.0 0.0 55 76 72.9 62.3 29.949 7.26 0.0 0 0.00 0.00 0.00 0.00
05/09/26 12:09:33 AM 38 0.0 0.0 55 77 72.9 62.2 29.947 7.26 0.0 0 0.00 0.00 0.00 0.00
05/09/26 12:10:24 AM 38 0.0 0.0 55 77 72.9 62.2 29.948 7.26 0.0 0 0.00 0.00 0.00 0.00
05/09/26 12:11:34 AM 37 0.0 0.0 55 77 72.9 62.2 29.949 7.26 0.0 0 0.00 0.00 0.00 0.00
05/09/26 12:12:29 AM 36 0.0 0.0 55 77 72.9 62.1 29.949 7.26 0.0 0 0.00 0.00 0.00 0.00
05/09/26 12:13:21 AM 38 0.0 0.0 55 77 72.9 62.1 29.947 7.26 0.0 0 0.00 0.00 0.00 0.00
05/09/26 12:14:28 AM 30 0.0 0.0 55 77 72.9 62.1 29.947 7.26 0.0 0 0.00 0.00 0.00 0.00
05/09/26 12:15:20 AM 37 0.0 0.0 55 77 72.9 62.1 29.948 7.26 0.0 0 0.00 0.00 0.00 0.00
05/09/26 12:16:30 AM 38 0.0 0.0 55 77 72.9 62.0 29.947 7.26 0.0 0 0.00 0.00 0.00 0.00
05/09/26 12:17:21 AM 38 0.0 0.0 55 77 72.8 62.0 29.946 7.26 0.0 0 0.00 0.00 0.00 0.00
05/09/26 12:18:31 AM 38 0.0 0.0 55 77 72.9 62.0 29.948 7.26 0.0 0 0.00 0.00 0.00 0.00
05/09/26 12:19:20 AM 38 0.0 0.0 55 78 72.8 61.9 29.947 7.26 0.0 0 0.00 0.00 0.00 0.00
05/09/26 12:20:30 AM 38 0.0 0.0 55 78 72.8 61.9 29.948 7.26 0.0 0 0.00 0.00 0.00 0.00
05/09/26 12:21:25 AM 37 0.0 0.0 55 78 72.9 61.9 29.946 7.26 0.0 0 0.00 0.00 0.00 0.00
05/09/26 12:22:35 AM 32 0.0 0.0 55 78 72.8 61.8 29.946 7.26 0.0 0 0.00 0.00 0.00 0.00
05/09/26 12:23:27 AM 32 0.0 0.0 55 78 72.8 61.8 29.944 7.26 0.0 0 0.00 0.00 0.00 0.00
05/09/26 12:24:37 AM 35 0.0 0.0 55 78 72.8 61.8 29.947 7.26 0.0 0 0.00 0.00 0.00 0.00
05/09/26 12:25:29 AM 39 0.0 0.0 55 78 72.8 61.7 29.944 7.26 0.0 0 0.00 0.00 0.00 0.00
05/09/26 12:26:21 AM 39 0.0 0.0 55 78 72.8 61.7 29.944 7.26 0.0 0 0.00 0.00 0.00 0.00
05/09/26 12:27:30 AM 38 0.0 0.0 55 78 72.8 61.7 29.945 7.26 0.0 0 0.00 0.00 0.00 0.00
05/09/26 12:28:22 AM 38 0.0 0.0 55 78 72.8 61.6 29.944 7.26 0.0 0 0.00 0.00 0.00 0.00
05/09/26 12:29:29 AM 39 0.0 0.0 55 78 72.8 61.6 29.944 7.26 0.0 0 0.00 0.00 0.00 0.00
05/09/26 12:30:24 AM 32 0.0 0.0 55 78 72.8 61.6 29.945 7.26 0.0 0 0.00 0.00 0.00 0.00
05/09/26 12:31:34 AM 38 0.0 0.0 55 78 72.8 61.5 29.945 7.26 0.0 0 0.00 0.00 0.00 0.00
05/09/26 12:32:26 AM 31 0.0 0.0 55 78 72.8 61.5 29.943 7.26 0.0 0 0.00 0.00 0.00 0.00
05/09/26 12:33:18 AM 37 0.0 0.0 55 78 72.8 61.5 29.945 7.26 0.0 0 0.00 0.00 0.00 0.00
05/09/26 12:34:28 AM 36 0.0 0.0 55 78 72.8 61.4 29.945 7.26 0.0 0 0.00 0.00 0.00 0.00
05/09/26 12:35:16 AM 37 0.0 0.0 55 78 72.8 61.4 29.948 7.26 0.0 0 0.00 0.00 0.00 0.00
05/09/26 12:36:29 AM 34 0.0 0.0 55 79 72.8 61.3 29.943 7.26 0.0 0 0.00 0.00 0.00 0.00
05/09/26 12:37:21 AM 36 0.0 0.0 55 79 72.8 61.3 29.945 7.26 0.0 0 0.00 0.00 0.00 0.00
05/09/26 12:38:31 AM 36 0.0 0.0 55 79 72.8 61.3 29.945 7.26 0.0 0 0.00 0.00 0.00 0.00
05/09/26 12:39:26 AM 38 0.0 0.0 55 79 72.8 61.3 29.948 7.26 0.0 0 0.00 0.00 0.00 0.00
05/09/26 12:40:33 AM 32 0.0 0.0 55 79 72.8 61.2 29.945 7.26 0.0 0 0.00 0.00 0.00 0.00
05/09/26 12:41:25 AM 36 0.0 0.0 55 79 72.8 61.2 29.948 7.26 0.0 0 0.00 0.00 0.00 0.00
05/09/26 12:42:16 AM 38 0.0 0.0 55 79 72.8 61.2 29.945 7.26 0.0 0 0.00 0.00 0.00 0.00
05/09/26 12:43:30 AM 38 0.0 0.0 55 79 72.8 61.1 29.945 7.26 0.0 0 0.00 0.00 0.00 0.00
05/09/26 12:44:21 AM 38 0.0 0.0 55 79 72.8 61.1 29.947 7.26 0.0 0 0.00 0.00 0.00 0.00
05/09/26 12:45:31 AM 38 0.0 0.0 55 80 72.8 61.1 29.943 7.26 0.0 0 0.00 0.00 0.00 0.00
05/09/26 12:46:20 AM 38 0.0 0.0 55 80 72.8 61.1 29.945 7.26 0.0 0 0.00 0.00 0.00 0.00
05/09/26 12:47:33 AM 36 0.0 0.0 55 80 72.7 61.1 29.948 7.26 0.0 0 0.00 0.00 0.00 0.00
05/09/26 12:48:25 AM 34 0.0 0.0 55 80 72.8 61.1 29.944 7.26 0.0 0 0.00 0.00 0.00 0.00
05/09/26 12:49:17 AM 38 0.0 0.0 55 80 72.8 61.0 29.947 7.26 0.0 0 0.00 0.00 0.00 0.00
05/09/26 12:50:30 AM 34 0.0 0.0 55 80 72.8 61.0 29.946 7.26 0.0 0 0.00 0.00 0.00 0.00
05/09/26 12:51:16 AM 32 0.0 0.0 55 80 72.7 61.0 29.944 7.26 0.0 0 0.00 0.00 0.00 0.00
05/09/26 12:52:29 AM 38 0.0 0.0 55 80 72.8 60.9 29.946 7.26 0.0 0 0.00 0.00 0.00 0.00
05/09/26 12:53:20 AM 36 0.0 0.0 55 80 72.7 60.9 29.946 7.26 0.0 0 0.00 0.00 0.00 0.00
05/09/26 12:54:33 AM 32 0.0 0.0 55 80 72.7 60.8 29.946 7.26 0.0 0 0.00 0.00 0.00 0.00
05/09/26 12:55:25 AM 38 0.0 0.0 55 80 72.7 60.8 29.947 7.26 0.0 0 0.00 0.00 0.00 0.00
05/09/26 12:56:32 AM 38 0.0 0.0 55 80 72.7 60.8 29.946 7.26 0.0 0 0.00 0.00 0.00 0.00
05/09/26 12:57:27 AM 39 0.0 0.0 55 80 72.7 60.7 29.946 7.26 0.0 0 0.00 0.00 0.00 0.00
05/09/26 12:58:19 AM 31 0.0 0.0 55 80 72.7 60.7 29.946 7.26 0.0 0 0.00 0.00 0.00 0.00
05/09/26 12:59:29 AM 38 0.0 0.0 55 80 72.7 60.7 29.945 7.26 0.0 0 0.00 0.00 0.00 0.00
05/09/26 1:00:24 AM 35 0.0 0.0 55 80 72.7 60.7 29.947 7.26 0.0 0 0.00 0.00 0.00 0.00
05/09/26 1:01:31 AM 34 0.0 0.0 55 80 72.7 60.6 29.945 7.26 0.0 0 0.00 0.00 0.00 0.00
05/09/26 1:02:22 AM 35 0.0 0.0 55 80 72.6 60.6 29.946 7.26 0.0 0 0.00 0.00 0.00 0.00
05/09/26 1:03:35 AM 36 0.0 0.0 55 81 72.6 60.6 29.943 7.26 0.0 0 0.00 0.00 0.00 0.00
05/09/26 1:04:27 AM 32 0.0 0.0 55 81 72.7 60.6 29.942 7.26 0.0 0 0.00 0.00 0.00 0.00
05/09/26 1:05:22 AM 36 0.0 0.0 55 81 72.6 60.5 29.942 7.26 0.0 0 0.00 0.00 0.00 0.00
05/09/26 1:06:32 AM 36 0.0 0.0 55 80 72.7 60.5 29.943 7.26 0.0 0 0.00 0.00 0.00 0.00
05/09/26 1:07:21 AM 35 0.0 0.0 55 81 72.6 60.5 29.941 7.26 0.0 0 0.00 0.00 0.00 0.00
05/09/26 1:08:31 AM 38 0.0 0.0 55 81 72.6 60.5 29.942 7.26 0.0 0 0.00 0.00 0.00 0.00
05/09/26 1:09:26 AM 37 0.0 0.0 55 81 72.6 60.4 29.942 7.26 0.0 0 0.00 0.00 0.00 0.00
05/09/26 1:10:18 AM 37 0.0 0.0 55 81 72.6 60.4 29.940 7.26 0.0 0 0.00 0.00 0.00 0.00
05/09/26 1:11:31 AM 37 0.0 0.0 55 81 72.6 60.4 29.941 7.26 0.0 0 0.00 0.00 0.00 0.00
05/09/26 1:12:17 AM 36 0.0 0.0 55 81 72.6 60.3 29.940 7.26 0.0 0 0.00 0.00 0.00 0.00
05/09/26 1:13:30 AM 38 0.0 0.0 55 81 72.6 60.3 29.940 7.26 0.0 0 0.00 0.00 0.00 0.00
05/09/26 1:14:21 AM 34 0.0 0.0 55 81 72.6 60.3 29.941 7.26 0.0 0 0.00 0.00 0.00 0.00
05/09/26 1:15:34 AM 37 0.0 0.0 55 81 72.6 60.2 29.940 7.26 0.0 0 0.00 0.00 0.00 0.00
05/09/26 1:16:26 AM 32 0.0 0.0 55 81 72.6 60.2 29.939 7.26 0.0 0 0.00 0.00 0.00 0.00
05/09/26 1:17:18 AM 36 0.0 0.0 55 81 72.6 60.2 29.940 7.26 0.0 0 0.00 0.00 0.00 0.00
05/09/26 1:18:25 AM 38 0.0 0.0 55 81 72.6 60.2 29.939 7.26 0.0 0 0.00 0.00 0.00 0.00
05/09/26 1:19:17 AM 38 0.0 0.0 55 81 72.6 60.2 29.937 7.26 0.0 0 0.00 0.00 0.00 0.00
05/09/26 1:20:27 AM 38 0.0 0.0 55 82 72.6 60.2 29.938 7.26 0.0 0 0.00 0.00 0.00 0.00
05/09/26 1:21:22 AM 38 0.0 0.0 55 82 72.6 60.2 29.934 7.26 0.0 0 0.00 0.00 0.00 0.00
05/09/26 1:22:32 AM 38 0.0 0.0 55 82 72.6 60.1 29.936 7.26 0.0 0 0.00 0.00 0.00 0.00
05/09/26 1:23:20 AM 37 0.0 0.0 55 82 72.6 60.1 29.938 7.26 0.0 0 0.00 0.00 0.00 0.00
05/09/26 1:24:34 AM 32 0.0 0.0 55 82 72.5 60.1 29.935 7.26 0.0 0 0.00 0.00 0.00 0.00
05/09/26 1:25:22 AM 32 0.0 0.0 55 82 72.6 60.0 29.935 7.26 0.0 0 0.00 0.00 0.00 0.00
05/09/26 1:26:17 AM 37 0.0 0.0 55 82 72.5 60.0 29.937 7.26 0.0 0 0.00 0.00 0.00 0.00
05/09/26 1:27:30 AM 38 0.0 0.0 55 82 72.5 60.0 29.935 7.26 0.0 0 0.00 0.00 0.00 0.00
05/09/26 1:28:19 AM 37 0.0 0.0 55 82 72.5 60.0 29.937 7.26 0.0 0 0.00 0.00 0.00 0.00
05/09/26 1:29:29 AM 32 0.0 0.0 55 82 72.5 60.0 29.936 7.26 0.0 0 0.00 0.00 0.00 0.00
05/09/26 1:30:24 AM 34 0.0 0.0 55 82 72.5 60.0 29.938 7.26 0.0 0 0.00 0.00 0.00 0.00
05/09/26 1:31:34 AM 38 0.0 0.0 55 82 72.6 60.0 29.936 7.26 0.0 0 0.00 0.00 0.00 0.00
05/09/26 1:32:29 AM 38 0.0 0.0 55 82 72.5 59.9 29.938 7.26 0.0 0 0.00 0.00 0.00 0.00
05/09/26 1:33:21 AM 30 0.0 0.0 55 82 72.5 59.9 29.936 7.26 0.0 0 0.00 0.00 0.00 0.00
05/09/26 1:34:28 AM 38 0.0 0.0 55 82 72.5 59.9 29.935 7.26 0.0 0 0.00 0.00 0.00 0.00
05/09/26 1:35:19 AM 37 0.0 0.0 55 82 72.5 59.9 29.935 7.26 0.0 0 0.00 0.00 0.00 0.00
05/09/26 1:36:36 AM 37 0.0 0.0 55 82 72.5 59.8 29.935 7.26 0.0 0 0.00 0.00 0.00 0.00
05/09/26 1:37:27 AM 37 0.0 0.0 55 82 72.5 59.8 29.937 7.26 0.0 0 0.00 0.00 0.00 0.00
05/09/26 1:38:16 AM 36 0.0 0.0 55 82 72.5 59.8 29.938 7.26 0.0 0 0.00 0.00 0.00 0.00
05/09/26 1:39:26 AM 37 0.0 0.0 55 82 72.5 59.8 29.936 7.26 0.0 0 0.00 0.00 0.00 0.00
05/09/26 1:40:18 AM 32 0.0 0.0 55 82 72.5 59.7 29.937 7.26 0.0 0 0.00 0.00 0.00 0.00
05/09/26 1:41:31 AM 38 0.0 0.0 55 82 72.5 59.7 29.935 7.26 0.0 0 0.00 0.00 0.00 0.00
05/09/26 1:42:23 AM 36 0.0 0.0 55 82 72.5 59.6 29.935 7.26 0.0 0 0.00 0.00 0.00 0.00
05/09/26 1:43:36 AM 36 0.0 0.0 55 82 72.4 59.6 29.935 7.26 0.0 0 0.00 0.00 0.00 0.00
05/09/26 1:44:22 AM 38 0.0 0.0 55 82 72.4 59.6 29.936 7.26 0.0 0 0.00 0.00 0.00 0.00
05/09/26 1:45:35 AM 38 0.0 0.0 55 82 72.5 59.6 29.935 7.26 0.0 0 0.00 0.00 0.00 0.00
05/09/26 1:46:27 AM 37 0.0 0.0 55 82 72.5 59.6 29.935 7.26 0.0 0 0.00 0.00 0.00 0.00
05/09/26 1:47:19 AM 37 0.0 0.0 55 82 72.4 59.6 29.934 7.26 0.0 0 0.00 0.00 0.00 0.00
05/09/26 1:48:29 AM 37 0.0 0.0 55 82 72.4 59.6 29.935 7.26 0.0 0 0.00 0.00 0.00 0.00
05/09/26 1:49:24 AM 37 0.0 0.0 55 82 72.5 59.5 29.935 7.26 0.0 0 0.00 0.00 0.00 0.00
05/09/26 1:50:31 AM 36 0.0 0.0 55 82 72.4 59.5 29.934 7.26 0.0 0 0.00 0.00 0.00 0.00
05/09/26 1:51:22 AM 37 0.0 0.0 55 82 72.4 59.5 29.933 7.26 0.0 0 0.00 0.00 0.00 0.00
05/09/26 1:52:32 AM 37 0.0 0.0 55 82 72.4 59.5 29.933 7.26 0.0 0 0.00 0.00 0.00 0.00
05/09/26 1:53:25 AM 38 0.0 0.0 55 82 72.4 59.5 29.934 7.26 0.0 0 0.00 0.00 0.00 0.00
05/09/26 1:54:19 AM 34 0.0 0.0 55 82 72.4 59.5 29.932 7.26 0.0 0 0.00 0.00 0.00 0.00
05/09/26 1:55:26 AM 35 0.0 0.0 55 82 72.4 59.4 29.930 7.26 0.0 0 0.00 0.00 0.00 0.00
05/09/26 1:56:18 AM 38 0.0 0.0 55 82 72.4 59.4 29.932 7.26 0.0 0 0.00 0.00 0.00 0.00
05/09/26 1:57:31 AM 35 0.0 0.0 55 82 72.4 59.4 29.932 7.26 0.0 0 0.00 0.00 0.00 0.00
05/09/26 1:58:20 AM 34 0.0 0.0 55 82 72.4 59.4 29.934 7.26 0.0 0 0.00 0.00 0.00 0.00
05/09/26 1:59:33 AM 38 0.0 0.0 55 82 72.4 59.3 29.933 7.26 0.0 0 0.00 0.00 0.00 0.00
05/09/26 2:00:22 AM 38 0.0 0.0 55 82 72.4 59.3 29.932 7.26 0.0 0 0.00 0.00 0.00 0.00
05/09/26 2:01:32 AM 37 0.0 0.0 55 83 72.3 59.3 29.931 7.26 0.0 0 0.00 0.00 0.00 0.00
05/09/26 2:02:24 AM 38 0.0 0.0 55 83 72.3 59.3 29.932 7.26 0.0 0 0.00 0.00 0.00 0.00
05/09/26 2:03:16 AM 31 0.0 0.0 55 83 72.4 59.3 29.932 7.26 0.0 0 0.00 0.00 0.00 0.00
05/09/26 2:04:29 AM 36 0.0 0.0 55 83 72.3 59.3 29.931 7.26 0.0 0 0.00 0.00 0.00 0.00
05/09/26 2:05:18 AM 37 0.0 0.0 55 83 72.3 59.2 29.932 7.26 0.0 0 0.00 0.00 0.00 0.00
05/09/26 2:06:28 AM 35 0.0 0.0 55 83 72.3 59.2 29.932 7.26 0.0 0 0.00 0.00 0.00 0.00
05/09/26 2:07:20 AM 38 0.0 0.0 55 83 72.3 59.2 29.932 7.26 0.0 0 0.00 0.00 0.00 0.00
05/09/26 2:08:33 AM 35 0.0 0.0 55 83 72.3 59.1 29.930 7.26 0.0 0 0.00 0.00 0.00 0.00
05/09/26 2:09:25 AM 38 0.0 0.0 55 83 72.3 59.1 29.931 7.26 0.0 0 0.00 0.00 0.00 0.00
05/09/26 2:10:17 AM 37 0.0 0.0 55 83 72.3 59.1 29.931 7.26 0.0 0 0.00 0.00 0.00 0.00
05/09/26 2:11:27 AM 38 0.0 0.0 55 83 72.3 59.1 29.929 7.26 0.0 0 0.00 0.00 0.00 0.00
05/09/26 2:12:19 AM 38 0.0 0.0 55 83 72.3 59.1 29.929 7.26 0.0 0 0.00 0.00 0.00 0.00
05/09/26 2:13:32 AM 38 0.0 0.0 55 83 72.3 59.0 29.928 7.26 0.0 0 0.00 0.00 0.00 0.00
05/09/26 2:14:24 AM 38 0.0 0.0 55 83 72.2 59.0 29.930 7.26 0.0 0 0.00 0.00 0.00 0.00
05/09/26 2:15:37 AM 32 0.0 0.0 55 83 72.3 59.0 29.932 7.26 0.0 0 0.00 0.00 0.00 0.00
05/09/26 2:16:23 AM 30 0.0 0.0 55 83 72.2 59.0 29.930 7.26 0.0 0 0.00 0.00 0.00 0.00
05/09/26 2:17:36 AM 38 0.0 0.0 55 83 72.2 58.9 29.928 7.26 0.0 0 0.00 0.00 0.00 0.00
05/09/26 2:18:28 AM 37 0.0 0.0 55 83 72.2 58.9 29.928 7.26 0.0 0 0.00 0.00 0.00 0.00
05/09/26 2:19:20 AM 38 0.0 0.0 55 83 72.2 58.9 29.930 7.26 0.0 0 0.00 0.00 0.00 0.00
05/09/26 2:20:33 AM 38 0.0 0.0 55 83 72.2 58.8 29.927 7.26 0.0 0 0.00 0.00 0.00 0.00
05/09/26 2:21:22 AM 38 0.0 0.0 55 83 72.2 58.8 29.929 7.26 0.0 0 0.00 0.00 0.00 0.00
05/09/26 2:22:32 AM 35 0.0 0.0 55 83 72.2 58.8 29.926 7.26 0.0 0 0.00 0.00 0.00 0.00
05/09/26 2:23:24 AM 32 0.0 0.0 55 83 72.1 58.7 29.928 7.26 0.0 0 0.00 0.00 0.00 0.00
05/09/26 2:24:34 AM 34 0.0 0.0 55 83 72.1 58.7 29.930 7.26 0.0 0 0.00 0.00 0.00 0.00
05/09/26 2:25:26 AM 38 0.0 0.0 55 83 72.1 58.6 29.929 7.26 0.0 0 0.00 0.00 0.00 0.00
05/09/26 2:26:18 AM 38 0.0 0.0 55 83 72.2 58.6 29.929 7.26 0.0 0 0.00 0.00 0.00 0.00
05/09/26 2:27:28 AM 32 0.0 0.0 55 83 72.1 58.6 29.929 7.26 0.0 0 0.00 0.00 0.00 0.00
05/09/26 2:28:20 AM 38 0.0 0.0 55 83 72.1 58.5 29.927 7.26 0.0 0 0.00 0.00 0.00 0.00
05/09/26 2:29:30 AM 37 0.0 0.0 55 83 72.1 58.5 29.927 7.26 0.0 0 0.00 0.00 0.00 0.00
05/09/26 2:30:25 AM 34 0.0 0.0 55 83 72.1 58.4 29.927 7.26 0.0 0 0.00 0.00 0.00 0.00
05/09/26 2:31:35 AM 37 0.0 0.0 55 83 72.1 58.4 29.924 7.26 0.0 0 0.00 0.00 0.00 0.00
05/09/26 2:32:24 AM 38 0.0 0.0 55 83 72.1 58.3 29.927 7.26 0.0 0 0.00 0.00 0.00 0.00
05/09/26 2:33:34 AM 34 0.0 0.0 55 84 72.1 58.3 29.924 7.26 0.0 0 0.00 0.00 0.00 0.00
05/09/26 2:34:28 AM 38 0.0 0.0 55 84 72.1 58.3 29.924 7.26 0.0 0 0.00 0.00 0.00 0.00
05/09/26 2:35:20 AM 32 0.0 0.0 55 84 72.1 58.3 29.924 7.26 0.0 0 0.00 0.00 0.00 0.00
05/09/26 2:36:33 AM 34 0.0 0.0 55 84 72.1 58.3 29.922 7.26 0.0 0 0.00 0.00 0.00 0.00
05/09/26 2:37:25 AM 36 0.0 0.0 55 84 72.0 58.2 29.924 7.26 0.0 0 0.00 0.00 0.00 0.00
05/09/26 2:38:32 AM 36 0.0 0.0 55 84 72.0 58.2 29.924 7.26 0.0 0 0.00 0.00 0.00 0.00
05/09/26 2:39:24 AM 36 0.0 0.0 55 84 72.0 58.2 29.924 7.26 0.0 0 0.00 0.00 0.00 0.00
05/09/26 2:40:16 AM 38 0.0 0.0 55 84 72.1 58.2 29.922 7.26 0.0 0 0.00 0.00 0.00 0.00
05/09/26 2:41:29 AM 38 0.0 0.0 55 84 72.0 58.2 29.919 7.26 0.0 0 0.00 0.00 0.00 0.00
05/09/26 2:42:21 AM 35 0.0 0.0 55 84 72.0 58.2 29.921 7.26 0.0 0 0.00 0.00 0.00 0.00
05/09/26 2:43:28 AM 38 0.0 0.0 55 84 72.0 58.2 29.921 7.26 0.0 0 0.00 0.00 0.00 0.00
05/09/26 2:44:20 AM 38 0.0 0.0 55 84 72.0 58.2 29.918 7.26 0.0 0 0.00 0.00 0.00 0.00
05/09/26 2:45:33 AM 34 0.0 0.0 55 84 72.0 58.2 29.922 7.26 0.0 0 0.00 0.00 0.00 0.00
05/09/26 2:46:22 AM 37 0.0 0.0 55 84 72.0 58.2 29.919 7.26 0.0 0 0.00 0.00 0.00 0.00
05/09/26 2:47:35 AM 37 0.0 0.0 55 84 72.0 58.2 29.920 7.26 0.0 0 0.00 0.00 0.00 0.00
05/09/26 2:48:24 AM 37 0.0 0.0 55 84 72.0 58.2 29.919 7.26 0.0 0 0.00 0.00 0.00 0.00
05/09/26 2:49:37 AM 37 0.0 0.0 55 84 72.0 58.2 29.917 7.26 0.0 0 0.00 0.00 0.00 0.00
05/09/26 2:50:29 AM 35 0.0 0.0 55 84 71.9 58.2 29.918 7.26 0.0 0 0.00 0.00 0.00 0.00
05/09/26 2:51:21 AM 36 0.0 0.0 55 84 71.9 58.1 29.918 7.26 0.0 0 0.00 0.00 0.00 0.00
05/09/26 2:52:34 AM 38 0.0 0.0 55 84 71.9 58.2 29.919 7.26 0.0 0 0.00 0.00 0.00 0.00
05/09/26 2:53:26 AM 37 0.0 0.0 55 84 71.9 58.2 29.917 7.26 0.0 0 0.00 0.00 0.00 0.00
05/09/26 2:54:36 AM 38 0.0 0.0 55 84 71.9 58.1 29.919 7.26 0.0 0 0.00 0.00 0.00 0.00
05/09/26 2:55:24 AM 32 0.0 0.0 55 84 71.9 58.1 29.918 7.26 0.0 0 0.00 0.00 0.00 0.00
05/09/26 2:56:16 AM 38 0.0 0.0 55 84 71.9 58.1 29.917 7.26 0.0 0 0.00 0.00 0.00 0.00
05/09/26 2:57:29 AM 35 0.0 0.0 55 84 71.9 58.0 29.919 7.26 0.0 0 0.00 0.00 0.00 0.00
05/09/26 2:58:21 AM 38 0.0 0.0 55 84 71.9 58.1 29.916 7.26 0.0 0 0.00 0.00 0.00 0.00
05/09/26 2:59:28 AM 36 0.0 0.0 55 85 71.9 58.1 29.919 7.26 0.0 0 0.00 0.00 0.00 0.00
05/09/26 3:00:41 AM 37 0.0 0.0 55 85 71.9 58.1 29.917 7.26 0.0 0 0.00 0.00 0.00 0.00
05/09/26 3:01:33 AM 37 0.0 0.0 55 85 71.9 58.1 29.918 7.26 0.0 0 0.00 0.00 0.00 0.00
05/09/26 3:02:25 AM 34 0.0 0.0 55 85 71.9 58.1 29.918 7.26 0.0 0 0.00 0.00 0.00 0.00
05/09/26 3:03:17 AM 38 0.0 0.0 55 85 71.9 58.1 29.917 7.26 0.0 0 0.00 0.00 0.00 0.00
05/09/26 3:04:30 AM 35 0.0 0.0 55 85 71.9 58.1 29.918 7.26 0.0 0 0.00 0.00 0.00 0.00
05/09/26 3:05:16 AM 38 0.0 0.0 55 85 71.9 58.0 29.917 7.26 0.0 0 0.00 0.00 0.00 0.00
05/09/26 3:06:29 AM 38 0.0 0.0 55 85 71.8 58.0 29.917 7.26 0.0 0 0.00 0.00 0.00 0.00
05/09/26 3:07:21 AM 38 0.0 0.0 55 85 71.9 58.0 29.917 7.26 0.0 0 0.00 0.00 0.00 0.00
05/09/26 3:08:34 AM 35 0.0 0.0 55 85 71.9 58.0 29.915 7.26 0.0 0 0.00 0.00 0.00 0.00
05/09/26 3:09:26 AM 40 0.0 0.0 55 85 71.9 58.0 29.917 7.26 0.0 0 0.00 0.00 0.00 0.00
05/09/26 3:10:33 AM 32 0.0 0.0 55 85 71.9 58.0 29.916 7.26 0.0 0 0.00 0.00 0.00 0.00
05/09/26 3:11:25 AM 37 0.0 0.0 55 85 71.9 58.0 29.918 7.26 0.0 0 0.00 0.00 0.00 0.00
05/09/26 3:12:17 AM 37 0.0 0.0 55 85 71.9 57.9 29.915 7.26 0.0 0 0.00 0.00 0.00 0.00
05/09/26 3:13:30 AM 38 0.0 0.0 55 85 71.9 57.9 29.917 7.26 0.0 0 0.00 0.00 0.00 0.00
05/09/26 3:14:22 AM 38 0.0 0.0 55 85 71.8 57.9 29.918 7.26 0.0 0 0.00 0.00 0.00 0.00
05/09/26 3:15:32 AM 38 0.0 0.0 55 85 71.8 57.8 29.917 7.26 0.0 0 0.00 0.00 0.00 0.00
05/09/26 3:16:21 AM 34 0.0 0.0 55 85 71.8 57.8 29.919 7.26 0.0 0 0.00 0.00 0.00 0.00
05/09/26 3:17:34 AM 37 0.0 0.0 55 85 71.8 57.8 29.916 7.26 0.0 0 0.00 0.00 0.00 0.00
05/09/26 3:18:26 AM 38 0.0 0.0 55 85 71.8 57.8 29.917 7.26 0.0 0 0.00 0.00 0.00 0.00
05/09/26 3:19:18 AM 34 0.0 0.0 55 85 71.9 57.7 29.918 7.26 0.0 0 0.00 0.00 0.00 0.00
05/09/26 3:20:31 AM 35 0.0 0.0 55 85 71.8 57.7 29.918 7.26 0.0 0 0.00 0.00 0.00 0.00
05/09/26 3:21:20 AM 38 0.0 0.0 55 85 71.8 57.7 29.916 7.26 0.0 0 0.00 0.00 0.00 0.00
05/09/26 3:22:30 AM 32 0.0 0.0 55 85 71.9 57.6 29.916 7.26 0.0 0 0.00 0.00 0.00 0.00
05/09/26 3:23:22 AM 36 0.0 0.0 55 85 71.8 57.6 29.916 7.26 0.0 0 0.00 0.00 0.00 0.00
05/09/26 3:24:35 AM 38 0.0 0.0 55 85 71.8 57.6 29.916 7.26 0.0 0 0.00 0.00 0.00 0.00
05/09/26 3:25:27 AM 36 0.0 0.0 55 85 71.8 57.6 29.913 7.26 0.0 0 0.00 0.00 0.00 0.00
05/09/26 3:26:34 AM 37 0.0 0.0 55 85 71.8 57.5 29.916 7.26 0.0 0 0.00 0.00 0.00 0.00
05/09/26 3:27:29 AM 35 0.0 0.0 55 85 71.8 57.5 29.913 7.26 0.0 0 0.00 0.00 0.00 0.00
05/09/26 3:28:18 AM 38 0.0 0.0 55 85 71.8 57.5 29.913 7.26 0.0 0 0.00 0.00 0.00 0.00
05/09/26 3:29:31 AM 37 0.0 0.0 55 85 71.8 57.4 29.915 7.26 0.0 0 0.00 0.00 0.00 0.00
05/09/26 3:30:23 AM 38 0.0 0.0 55 85 71.8 57.4 29.915 7.26 0.0 0 0.00 0.00 0.00 0.00
05/09/26 3:31:30 AM 32 0.0 0.0 55 85 71.8 57.3 29.916 7.26 0.0 0 0.00 0.00 0.00 0.00
05/09/26 3:32:22 AM 36 0.0 0.0 55 85 71.8 57.3 29.913 7.26 0.0 0 0.00 0.00 0.00 0.00
05/09/26 3:33:35 AM 36 0.0 0.0 55 85 71.8 57.3 29.915 7.26 0.0 0 0.00 0.00 0.00 0.00
05/09/26 3:34:27 AM 32 0.0 0.0 55 85 71.7 57.2 29.913 7.26 0.0 0 0.00 0.00 0.00 0.00
05/09/26 3:35:19 AM 36 0.0 0.0 55 85 71.8 57.2 29.911 7.26 0.0 0 0.00 0.00 0.00 0.00
05/09/26 3:36:32 AM 31 0.0 0.0 55 85 71.7 57.2 29.911 7.26 0.0 0 0.00 0.00 0.00 0.00
05/09/26 3:37:21 AM 34 0.0 0.0 55 85 71.7 57.2 29.912 7.26 0.0 0 0.00 0.00 0.00 0.00
05/09/26 3:38:31 AM 38 0.0 0.0 55 85 71.7 57.1 29.911 7.26 0.0 0 0.00 0.00 0.00 0.00
05/09/26 3:39:23 AM 34 0.0 0.0 55 85 71.7 57.1 29.911 7.26 0.0 0 0.00 0.00 0.00 0.00
05/09/26 3:40:33 AM 38 0.0 0.0 55 85 71.7 57.1 29.912 7.26 0.0 0 0.00 0.00 0.00 0.00
05/09/26 3:41:28 AM 36 0.0 0.0 55 85 71.7 57.1 29.908 7.26 0.0 0 0.00 0.00 0.00 0.00
05/09/26 3:42:35 AM 36 0.0 0.0 55 85 71.7 57.0 29.913 7.26 0.0 0 0.00 0.00 0.00 0.00
05/09/26 3:43:27 AM 34 0.0 0.0 55 85 71.7 57.1 29.912 7.26 0.0 0 0.00 0.00 0.00 0.00
05/09/26 3:44:16 AM 35 0.0 0.0 55 85 71.7 57.0 29.912 7.26 0.0 0 0.00 0.00 0.00 0.00
05/09/26 3:45:29 AM 36 0.0 0.0 55 85 71.7 57.0 29.913 7.26 0.0 0 0.00 0.00 0.00 0.00
05/09/26 3:46:21 AM 31 0.0 0.0 55 85 71.7 56.9 29.910 7.26 0.0 0 0.00 0.00 0.00 0.00
05/09/26 3:47:31 AM 35 0.0 0.0 55 85 71.7 56.9 29.912 7.26 0.0 0 0.00 0.00 0.00 0.00
05/09/26 3:48:20 AM 37 0.0 0.0 55 85 71.7 56.9 29.911 7.26 0.0 0 0.00 0.00 0.00 0.00
05/09/26 3:49:33 AM 38 0.0 0.0 55 85 71.7 56.9 29.912 7.26 0.0 0 0.00 0.00 0.00 0.00
05/09/26 3:50:25 AM 38 0.0 0.0 55 85 71.7 56.9 29.910 7.26 0.0 0 0.00 0.00 0.00 0.00
05/09/26 3:51:20 AM 37 0.0 0.0 55 85 71.7 56.9 29.912 7.26 0.0 0 0.00 0.00 0.00 0.00
05/09/26 3:52:30 AM 37 0.0 0.0 55 86 71.7 56.9 29.911 7.26 0.0 0 0.00 0.00 0.00 0.00
05/09/26 3:53:19 AM 37 0.0 0.0 55 86 71.7 56.9 29.910 7.26 0.0 0 0.00 0.00 0.00 0.00
05/09/26 3:54:32 AM 34 0.0 0.0 55 86 71.7 56.9 29.912 7.26 0.0 0 0.00 0.00 0.00 0.00
05/09/26 3:55:21 AM 32 0.0 0.0 55 86 71.7 57.0 29.912 7.26 0.0 0 0.00 0.00 0.00 0.00
05/09/26 3:56:31 AM 37 0.0 0.0 55 86 71.7 57.0 29.911 7.26 0.0 0 0.00 0.00 0.00 0.00
05/09/26 3:57:26 AM 36 0.0 0.0 55 86 71.7 57.0 29.911 7.26 0.0 0 0.00 0.00 0.00 0.00
05/09/26 3:58:30 AM 34 0.0 0.0 55 86 71.7 57.0 29.911 7.26 0.0 0 0.00 0.00 0.00 0.00
05/09/26 3:59:22 AM 36 0.0 0.0 55 86 71.6 57.0 29.911 7.26 0.0 0 0.00 0.00 0.00 0.00
05/09/26 4:00:17 AM 38 0.0 0.0 55 86 71.7 57.1 29.912 7.26 0.0 0 0.00 0.00 0.00 0.00
05/09/26 4:01:30 AM 38 0.0 0.0 55 86 71.7 57.1 29.912 7.26 0.0 0 0.00 0.00 0.00 0.00
05/09/26 4:02:22 AM 37 0.0 0.0 55 86 71.7 57.1 29.912 7.26 0.0 0 0.00 0.00 0.00 0.00
05/09/26 4:03:29 AM 36 0.0 0.0 55 86 71.7 57.1 29.914 7.26 0.0 0 0.00 0.00 0.00 0.00
05/09/26 4:04:21 AM 38 0.0 0.0 55 86 71.7 57.1 29.911 7.26 0.0 0 0.00 0.00 0.00 0.00
05/09/26 4:05:34 AM 32 0.0 0.0 55 86 71.7 57.1 29.911 7.26 0.0 0 0.00 0.00 0.00 0.00
05/09/26 4:06:23 AM 36 0.0 0.0 55 86 71.7 57.1 29.911 7.26 0.0 0 0.00 0.00 0.00 0.00
05/09/26 4:07:36 AM 38 0.0 0.0 55 86 71.7 57.1 29.911 7.26 0.0 0 0.00 0.00 0.00 0.00
05/09/26 4:08:31 AM 37 0.0 0.0 55 86 71.7 57.1 29.910 7.26 0.0 0 0.00 0.00 0.00 0.00
05/09/26 4:09:20 AM 35 0.0 0.0 55 86 71.7 57.1 29.912 7.26 0.0 0 0.00 0.00 0.00 0.00
05/09/26 4:10:33 AM 32 0.0 0.0 55 86 71.7 57.1 29.911 7.26 0.0 0 0.00 0.00 0.00 0.00
05/09/26 4:11:25 AM 35 0.0 0.0 55 86 71.7 57.1 29.910 7.26 0.0 0 0.00 0.00 0.00 0.00
05/09/26 4:12:17 AM 37 0.0 0.0 55 86 71.7 57.0 29.908 7.26 0.0 0 0.00 0.00 0.00 0.00
05/09/26 4:13:30 AM 38 0.0 0.0 55 86 71.7 57.0 29.911 7.26 0.0 0 0.00 0.00 0.00 0.00
05/09/26 4:14:19 AM 32 0.0 0.0 55 86 71.7 57.0 29.908 7.26 0.0 0 0.00 0.00 0.00 0.00
05/09/26 4:15:53 AM 34 0.0 0.0 55 86 71.7 57.0 29.911 7.26 0.0 0 0.00 0.00 0.00 0.00
05/09/26 4:16:21 AM 34 0.0 0.0 55 86 71.6 57.0 29.911 7.26 0.0 0 0.00 0.00 0.00 0.00
05/09/26 4:17:34 AM 37 0.0 0.0 55 86 71.7 56.9 29.912 7.26 0.0 0 0.00 0.00 0.00 0.00
05/09/26 4:18:29 AM 36 0.0 0.0 55 86 71.7 56.9 29.912 7.26 0.0 0 0.00 0.00 0.00 0.00
05/09/26 4:19:18 AM 38 0.0 0.0 55 86 71.7 56.9 29.910 7.26 0.0 0 0.00 0.00 0.00 0.00
05/09/26 4:20:28 AM 36 0.0 0.0 55 86 71.6 56.9 29.912 7.26 0.0 0 0.00 0.00 0.00 0.00
05/09/26 4:21:20 AM 35 0.0 0.0 55 86 71.6 56.9 29.911 7.26 0.0 0 0.00 0.00 0.00 0.00
05/09/26 4:22:33 AM 32 0.0 0.0 55 86 71.6 56.9 29.908 7.26 0.0 0 0.00 0.00 0.00 0.00
05/09/26 4:23:25 AM 38 0.0 0.0 55 86 71.6 56.9 29.908 7.26 0.0 0 0.00 0.00 0.00 0.00
05/09/26 4:24:17 AM 38 0.0 0.0 55 86 71.6 56.9 29.906 7.26 0.0 0 0.00 0.00 0.00 0.00
05/09/26 4:25:24 AM 38 0.0 0.0 55 86 71.6 56.8 29.910 7.26 0.0 0 0.00 0.00 0.00 0.00
05/09/26 4:26:19 AM 38 0.0 0.0 55 86 71.6 56.8 29.907 7.26 0.0 0 0.00 0.00 0.00 0.00
05/09/26 4:27:29 AM 37 0.0 0.0 55 86 71.6 56.8 29.906 7.26 0.0 0 0.00 0.00 0.00 0.00
05/09/26 4:28:21 AM 34 0.0 0.0 55 86 71.7 56.8 29.907 7.26 0.0 0 0.00 0.00 0.00 0.00
05/09/26 4:29:34 AM 37 0.0 0.0 55 86 71.6 56.7 29.907 7.26 0.0 0 0.00 0.00 0.00 0.00
05/09/26 4:30:47 AM 36 0.0 0.0 55 86 71.6 56.7 29.906 7.26 0.0 0 0.00 0.00 0.00 0.00
05/09/26 4:31:33 AM 37 0.0 0.0 55 86 71.6 56.7 29.906 7.26 0.0 0 0.00 0.00 0.00 0.00
05/09/26 4:32:25 AM 37 0.0 0.0 55 86 71.6 56.7 29.905 7.26 0.0 0 0.00 0.00 0.00 0.00
05/09/26 4:33:17 AM 35 0.0 0.0 55 86 71.6 56.7 29.905 7.26 0.0 0 0.00 0.00 0.00 0.00
05/09/26 4:34:27 AM 32 0.0 0.0 55 86 71.6 56.6 29.906 7.26 0.0 0 0.00 0.00 0.00 0.00
05/09/26 4:35:19 AM 35 0.0 0.0 55 86 71.6 56.6 29.907 7.26 0.0 0 0.00 0.00 0.00 0.00
05/09/26 4:36:26 AM 36 0.0 0.0 55 86 71.6 56.6 29.905 7.26 0.0 0 0.00 0.00 0.00 0.00
05/09/26 4:37:21 AM 38 0.0 0.0 55 86 71.6 56.6 29.907 7.26 0.0 0 0.00 0.00 0.00 0.00
05/09/26 4:38:31 AM 38 0.0 0.0 55 86 71.5 56.6 29.907 7.26 0.0 0 0.00 0.00 0.00 0.00
05/09/26 4:39:23 AM 34 0.0 0.0 55 87 71.6 56.6 29.906 7.26 0.0 0 0.00 0.00 0.00 0.00
05/09/26 4:40:36 AM 32 0.0 0.0 55 87 71.5 56.6 29.906 7.26 0.0 0 0.00 0.00 0.00 0.00
05/09/26 4:41:28 AM 38 0.0 0.0 55 87 71.6 56.6 29.907 7.26 0.0 0 0.00 0.00 0.00 0.00
05/09/26 4:42:35 AM 38 0.0 0.0 55 87 71.5 56.6 29.908 7.26 0.0 0 0.00 0.00 0.00 0.00
05/09/26 4:43:27 AM 30 0.0 0.0 55 87 71.6 56.6 29.908 7.26 0.0 0 0.00 0.00 0.00 0.00
05/09/26 4:44:19 AM 38 0.0 0.0 55 87 71.6 56.6 29.906 7.26 0.0 0 0.00 0.00 0.00 0.00
05/09/26 4:45:32 AM 32 0.0 0.0 55 87 71.5 56.5 29.906 7.26 0.0 0 0.00 0.00 0.00 0.00
05/09/26 4:46:24 AM 38 0.0 0.0 55 87 71.6 56.6 29.907 7.26 0.0 0 0.00 0.00 0.00 0.00
05/09/26 4:47:31 AM 38 0.0 0.0 55 87 71.5 56.6 29.905 7.26 0.0 0 0.00 0.00 0.00 0.00
05/09/26 4:48:23 AM 36 0.0 0.0 55 87 71.5 56.6 29.905 7.26 0.0 0 0.00 0.00 0.00 0.00
05/09/26 4:49:36 AM 38 0.0 0.0 55 87 71.5 56.6 29.905 7.26 0.0 0 0.00 0.00 0.00 0.00
05/09/26 4:50:28 AM 38 0.0 0.0 55 87 71.5 56.5 29.907 7.26 0.0 0 0.00 0.00 0.00 0.00
05/09/26 4:51:20 AM 38 0.0 0.0 55 87 71.5 56.5 29.905 7.26 0.0 0 0.00 0.00 0.00 0.00
05/09/26 4:52:27 AM 38 0.0 0.0 55 87 71.5 56.5 29.908 7.26 0.0 0 0.00 0.00 0.00 0.00
05/09/26 4:53:19 AM 31 0.0 0.0 55 87 71.5 56.5 29.908 7.26 0.0 0 0.00 0.00 0.00 0.00
05/09/26 4:54:32 AM 38 0.0 0.0 55 87 71.5 56.5 29.904 7.26 0.0 0 0.00 0.00 0.00 0.00
05/09/26 4:55:27 AM 38 0.0 0.0 55 87 71.5 56.5 29.904 7.26 0.0 0 0.00 0.00 0.00 0.00
05/09/26 4:56:16 AM 38 0.0 0.0 55 87 71.5 56.5 29.904 7.26 0.0 0 0.00 0.00 0.00 0.00
05/09/26 4:57:29 AM 32 0.0 0.0 55 87 71.5 56.5 29.904 7.26 0.0 0 0.00 0.00 0.00 0.00
05/09/26 4:58:19 AM 37 0.0 0.0 55 87 71.5 56.5 29.907 7.26 0.0 0 0.00 0.00 0.00 0.00
05/09/26 4:59:29 AM 38 0.0 0.0 55 87 71.5 56.5 29.905 7.26 0.0 0 0.00 0.00 0.00 0.00
05/09/26 5:00:45 AM 35 0.0 0.0 55 87 71.5 56.4 29.905 7.26 0.0 0 0.00 0.00 0.00 0.00
05/09/26 5:01:37 AM 38 0.0 0.0 55 87 71.5 56.4 29.905 7.26 0.0 0 0.00 0.00 0.00 0.00
05/09/26 5:02:29 AM 37 0.0 0.0 55 87 71.5 56.4 29.904 7.26 0.0 0 0.00 0.00 0.00 0.00
05/09/26 5:03:21 AM 34 0.0 0.0 55 87 71.5 56.3 29.906 7.26 0.0 0 0.00 0.00 0.00 0.00
05/09/26 5:04:28 AM 32 0.0 0.0 55 87 71.4 56.2 29.906 7.26 0.0 0 0.00 0.00 0.00 0.00
05/09/26 5:05:20 AM 34 0.0 0.0 55 87 71.3 56.2 29.905 7.26 0.0 0 0.00 0.00 0.00 0.00
05/09/26 5:06:33 AM 36 0.0 0.0 55 87 71.3 56.2 29.906 7.26 0.0 0 0.00 0.00 0.00 0.00
05/09/26 5:07:25 AM 38 0.0 0.0 55 87 71.2 56.2 29.907 7.26 0.0 0 0.00 0.00 0.00 0.00
05/09/26 5:08:17 AM 37 0.0 0.0 55 87 71.0 56.2 29.906 7.26 0.0 0 0.00 0.00 0.00 0.00
05/09/26 5:09:24 AM 37 0.0 0.0 55 87 70.9 56.1 29.907 7.26 0.0 0 0.00 0.00 0.00 0.00
05/09/26 5:10:16 AM 35 0.0 0.0 55 87 70.8 56.2 29.906 7.26 0.0 0 0.00 0.00 0.00 0.00
05/09/26 5:11:26 AM 38 0.0 0.0 55 87 70.7 56.1 29.905 7.26 0.0 0 0.00 0.00 0.00 0.00
05/09/26 5:12:18 AM 36 0.0 0.0 55 87 70.5 56.2 29.909 7.26 0.0 0 0.00 0.00 0.00 0.00
05/09/26 5:13:29 AM 36 0.0 0.0 55 87 70.4 56.1 29.906 7.26 0.0 0 0.00 0.00 0.00 0.00
05/09/26 5:14:18 AM 38 0.0 0.0 55 87 70.3 56.2 29.905 7.26 0.0 0 0.00 0.00 0.00 0.00
05/09/26 5:15:34 AM 34 0.0 0.0 55 87 70.2 56.2 29.904 7.26 0.0 0 0.00 0.00 0.00 0.00
05/09/26 5:16:23 AM 38 0.0 0.0 55 87 70.1 56.1 29.906 7.26 0.0 0 0.00 0.00 0.00 0.00
05/09/26 5:17:33 AM 36 0.0 0.0 55 87 70.0 56.1 29.910 7.26 0.0 0 0.00 0.00 0.00 0.00
05/09/26 5:18:28 AM 40 0.0 0.0 55 87 69.9 56.1 29.906 7.26 0.0 0 0.00 0.00 0.00 0.00
05/09/26 5:19:17 AM 29 0.0 0.0 55 87 69.8 56.1 29.907 7.26 0.0 0 0.00 0.00 0.00 0.00
05/09/26 5:20:24 AM 38 0.0 0.0 55 87 69.7 56.1 29.902 7.26 0.0 0 0.00 0.00 0.00 0.00
05/09/26 5:21:16 AM 37 0.0 0.0 55 87 69.7 56.1 29.904 7.26 0.0 0 0.00 0.00 0.00 0.00
05/09/26 5:22:29 AM 35 0.0 0.0 55 87 69.5 56.0 29.904 7.26 0.0 0 0.00 0.00 0.00 0.00
05/09/26 5:23:21 AM 34 0.0 0.0 55 87 69.4 56.0 29.904 7.26 0.0 0 0.00 0.00 0.00 0.00
05/09/26 5:24:35 AM 37 0.0 0.0 55 87 69.4 56.0 29.906 7.26 0.0 0 0.00 0.00 0.00 0.00
05/09/26 5:25:20 AM 35 0.0 0.0 56 87 69.3 56.0 29.908 7.26 0.0 0 0.00 0.00 0.00 0.00
05/09/26 5:26:34 AM 37 0.0 0.0 56 87 69.2 55.9 29.907 7.26 0.0 0 0.00 0.00 0.00 0.00
05/09/26 5:27:26 AM 36 0.0 0.0 56 87 69.1 55.9 29.910 7.26 0.0 0 0.00 0.00 0.00 0.00
05/09/26 5:28:18 AM 36 0.0 0.0 56 87 69.1 55.8 29.908 7.26 0.0 0 0.00 0.00 0.00 0.00
05/09/26 5:29:31 AM 38 0.0 0.0 56 87 68.9 55.7 29.908 7.26 0.0 0 0.00 0.00 0.00 0.00
05/09/26 5:30:20 AM 35 0.0 0.0 56 87 68.9 55.7 29.909 7.26 0.0 0 0.00 0.00 0.00 0.00
05/09/26 5:31:30 AM 38 0.0 0.0 56 87 68.8 55.7 29.909 7.26 0.0 0 0.00 0.00 0.00 0.00

University Police wind advisory reference

For campus closure information please call the campus Emergency Hotline at (909) 537-5999

© All rights reserved. Unauthorized duplication or distribution is prohibited

Never base important decisions on this or any weather information obtained from the Internet

California State University, San Bernardino
5500 University Parkway, San Bernardino, CA. 92407
Phone: (909) 537-5108, Email: Weather Webmaster
Last Updated: